EW1198 Weather Reports


time (UTC)temp
C
wind
direction
speed
KPH
gust
KPH
rain 1hr
cm
rain 24hr
cm
rain mn
cm
humidity
%
barometer
mb
20260903010304 31 0 0.0 0.0 0.00 0.00 0.00 65 1013.0
20260903005804 31 0 0.0 0.0 0.00 0.00 0.00 65 1013.0
20260903005306 31 0 0.0 0.0 0.00 0.00 0.00 64 1013.0
20260903004804 31 261 0.0 0.0 0.00 0.00 0.00 64 1013.1
20260903004305 31 261 0.0 0.0 0.00 0.00 0.00 63 1012.9
20260903002803 31 223 0.0 1.6 0.00 0.00 0.00 62 1012.9
20260903002306 31 216 0.0 0.0 0.00 0.00 0.00 62 1012.9
20260903001803 31 217 0.0 0.0 0.00 0.00 0.00 62 1012.9
20260903001303 32 221 0.0 0.0 0.00 0.00 0.00 61 1012.8
20260903000803 32 221 0.0 0.0 0.00 0.00 0.00 60 1012.9
20260903000304 32 227 0.0 0.0 0.00 0.00 0.00 60 1013.0
20260902235804 32 243 0.0 0.0 0.00 0.00 0.00 59 1012.9
20260902234803 32 245 0.0 3.2 0.00 0.00 0.00 58 1013.0
20260902233803 33 236 0.0 1.6 0.00 0.00 0.00 57 1012.8
20260902233303 33 228 0.0 3.2 0.00 0.00 0.00 57 1012.9
20260902232804 33 333 0.0 0.0 0.00 0.00 0.00 57 1012.9
20260902232306 33 355 0.0 3.2 0.00 0.00 0.00 56 1012.9
20260902231804 33 0 0.0 0.0 0.00 0.00 0.00 56 1012.9
20260902231304 33 246 0.0 1.6 0.00 0.00 0.00 56 1012.8
20260902230804 33 227 0.0 3.2 0.00 0.00 0.00 55 1012.9
20260902230303 33 207 0.0 0.0 0.00 0.00 0.00 55 1012.9
20260902225804 33 358 0.0 0.0 0.00 0.00 0.00 55 1012.8
20260902224804 33 233 0.0 1.6 0.00 0.00 0.00 54 1012.9
20260902224304 33 183 0.0 4.8 0.00 0.00 0.00 54 1013.0
20260902223803 34 258 0.0 4.8 0.00 0.00 0.00 53 1013.1
20260902223304 34 227 0.0 4.8 0.00 0.00 0.00 52 1013.1
20260902222804 34 270 1.6 4.8 0.00 0.00 0.00 51 1013.1
20260902222306 34 262 0.0 3.2 0.00 0.00 0.00 52 1013.1
20260902221804 34 300 0.0 3.2 0.00 0.00 0.00 52 1013.1
20260902221303 34 267 0.0 3.2 0.00 0.00 0.00 51 1013.1
20260902220303 34 273 0.0 4.8 0.00 0.00 0.00 51 1013.2
20260902215804 35 276 1.6 4.8 0.00 0.00 0.00 50 1013.1
20260902215306 35 291 0.0 4.8 0.00 0.00 0.00 50 1013.2
20260902214803 34 230 0.0 4.8 0.00 0.00 0.00 50 1013.2
20260902214304 35 268 1.6 4.8 0.00 0.00 0.00 50 1013.3
20260902213803 35 265 1.6 4.8 0.00 0.00 0.00 50 1013.1
20260902213303 35 265 1.6 4.8 0.00 0.00 0.00 49 1013.1
20260902212805 35 219 0.0 4.8 0.00 0.00 0.00 49 1013.2
20260902212305 35 253 0.0 4.8 0.00 0.00 0.00 49 1013.3
20260902211804 35 295 0.0 4.8 0.00 0.00 0.00 51 1013.4
20260902211304 35 217 0.0 3.2 0.00 0.00 0.00 50 1013.4
20260902210804 35 241 0.0 4.8 0.00 0.00 0.00 49 1013.5
20260902210303 35 239 0.0 4.8 0.00 0.00 0.00 49 1013.6
20260902205804 35 291 0.0 4.8 0.00 0.00 0.00 50 1013.5
20260902204803 35 246 1.6 4.8 0.00 0.00 0.00 49 1013.5
20260902203804 35 241 0.0 3.2 0.00 0.00 0.00 50 1013.6
20260902203304 35 218 0.0 1.6 0.00 0.00 0.00 50 1013.6
20260902202306 35 295 0.0 3.2 0.00 0.00 0.00 49 1013.7
20260902201804 35 283 0.0 3.2 0.00 0.00 0.00 48 1013.6
20260902201304 35 271 0.0 3.2 0.00 0.00 0.00 48 1013.7
20260902200804 35 268 0.0 3.2 0.00 0.00 0.00 50 1013.7
20260902200304 35 228 0.0 3.2 0.00 0.00 0.00 50 1013.8
20260902195306 35 248 0.0 3.2 0.00 0.00 0.00 49 1013.9
20260902194803 35 270 1.6 4.8 0.00 0.00 0.00 48 1014.0
20260902194303 35 329 0.0 1.6 0.00 0.00 0.00 48 1014.0
20260902193804 36 190 0.0 1.6 0.00 0.00 0.00 48 1014.0
20260902193304 36 286 0.0 4.8 0.00 0.00 0.00 47 1014.1
20260902192803 36 238 0.0 4.8 0.00 0.00 0.00 46 1014.1
20260902192306 36 285 1.6 4.8 0.00 0.00 0.00 47 1014.1
20260902191804 35 307 1.6 8.0 0.00 0.00 0.00 47 1014.2
20260902190804 35 290 0.0 3.2 0.00 0.00 0.00 46 1014.3
20260902185804 35 193 0.0 1.6 0.00 0.00 0.00 48 1014.4
20260902185307 36 297 0.0 3.2 0.00 0.00 0.00 48 1014.3
20260902184804 35 261 0.0 3.2 0.00 0.00 0.00 48 1014.4
20260902184304 35 244 0.0 1.6 0.00 0.00 0.00 48 1014.6
20260902183803 35 247 0.0 3.2 0.00 0.00 0.00 48 1014.5
20260902183304 36 236 0.0 4.8 0.00 0.00 0.00 47 1014.6
20260902182803 35 290 0.0 4.8 0.00 0.00 0.00 46 1014.6
20260902181804 35 281 1.6 8.0 0.00 0.00 0.00 48 1014.7
20260902181304 35 243 0.0 4.8 0.00 0.00 0.00 48 1014.7
20260902180304 35 323 0.0 3.2 0.00 0.00 0.00 49 1014.7
20260902175803 34 275 0.0 4.8 0.00 0.00 0.00 50 1015.0
20260902175307 35 227 0.0 4.8 0.00 0.00 0.00 49 1014.9
20260902174804 34 357 0.0 4.8 0.00 0.00 0.00 50 1014.9
20260902174304 34 274 0.0 4.8 0.00 0.00 0.00 51 1015.0
20260902173804 34 336 0.0 4.8 0.00 0.00 0.00 51 1015.1
20260902173303 35 226 0.0 4.8 0.00 0.00 0.00 50 1015.2
20260902172804 35 283 1.6 4.8 0.00 0.00 0.00 51 1015.3
20260902172308 34 283 0.0 1.6 0.00 0.00 0.00 53 1015.4
20260902171804 34 230 1.6 4.8 0.00 0.00 0.00 52 1015.4
20260902171303 34 272 0.0 4.8 0.00 0.00 0.00 52 1015.4
20260902170804 34 322 0.0 3.2 0.00 0.00 0.00 53 1015.4
20260902170304 34 215 0.0 1.6 0.00 0.00 0.00 54 1015.3
20260902165804 35 249 0.0 3.2 0.00 0.00 0.00 53 1015.3
20260902165308 35 301 0.0 4.8 0.00 0.00 0.00 52 1015.4
20260902164804 35 296 0.0 3.2 0.00 0.00 0.00 53 1015.4
20260902164303 34 254 0.0 3.2 0.00 0.00 0.00 56 1015.4
20260902163804 34 330 0.0 1.6 0.00 0.00 0.00 56 1015.3
20260902163304 33 221 0.0 0.0 0.00 0.00 0.00 58 1015.4
20260902162804 33 230 0.0 1.6 0.00 0.00 0.00 57 1015.3
20260902162306 34 237 0.0 1.6 0.00 0.00 0.00 56 1015.4
20260902161804 35 247 0.0 3.2 0.00 0.00 0.00 54 1015.3
20260902161304 34 358 0.0 4.8 0.00 0.00 0.00 53 1015.5
20260902160804 34 302 0.0 3.2 0.00 0.00 0.00 55 1015.5
20260902155803 33 289 0.0 4.8 0.00 0.00 0.00 55 1015.6
20260902155307 34 265 0.0 1.6 0.00 0.00 0.00 56 1015.5
20260902154803 33 212 0.0 1.6 0.00 0.00 0.00 59 1015.5
20260902154304 32 228 0.0 0.0 0.00 0.00 0.00 60 1015.7
20260902153304 32 250 0.0 1.6 0.00 0.00 0.00 60 1015.7
20260902152803 32 227 0.0 4.8 0.00 0.00 0.00 62 1015.7
20260902151804 32 241 0.0 0.0 0.00 0.00 0.00 60 1015.7
20260902150804 32 254 0.0 4.8 0.00 0.00 0.00 59 1015.8
20260902145804 32 297 0.0 4.8 0.00 0.00 0.00 60 1015.7
20260902145306 32 286 0.0 1.6 0.00 0.00 0.00 60 1015.6
20260902144804 31 309 0.0 3.2 0.00 0.00 0.00 60 1015.7
20260902144303 31 273 0.0 4.8 0.00 0.00 0.00 61 1015.7
20260902143303 31 313 0.0 1.6 0.00 0.00 0.00 61 1015.6
20260902142803 31 317 0.0 1.6 0.00 0.00 0.00 62 1015.6
20260902142306 31 318 0.0 3.2 0.00 0.00 0.00 62 1015.6
20260902141804 31 280 0.0 3.2 0.00 0.00 0.00 63 1015.6
20260902141304 31 286 0.0 0.0 0.00 0.00 0.00 63 1015.7
20260902140805 30 286 0.0 4.8 0.00 0.00 0.00 65 1015.7
20260902140304 30 242 0.0 0.0 0.00 0.00 0.00 66 1015.6
20260902135804 29 242 0.0 0.0 0.00 0.00 0.00 68 1015.7
20260902135306 29 242 0.0 0.0 0.00 0.00 0.00 68 1015.7
20260902134804 29 233 0.0 1.6 0.00 0.00 0.00 68 1015.7
20260902134304 29 290 0.0 3.2 0.00 0.00 0.00 69 1015.7
20260902133804 28 283 0.0 1.6 0.00 0.00 0.00 70 1015.8
20260902133304 28 269 0.0 0.0 0.00 0.00 0.00 71 1015.7
20260902132804 28 261 0.0 0.0 0.00 0.00 0.00 71 1015.7
20260902132306 28 263 0.0 0.0 0.00 0.00 0.00 73 1015.8
20260902131804 27 0 0.0 0.0 0.00 0.00 0.00 74 1015.8
20260902131303 27 328 0.0 0.0 0.00 0.00 0.00 75 1015.8
20260902130804 27 224 0.0 0.0 0.00 0.00 0.00 75 1015.7
20260902130304 27 238 0.0 0.0 0.00 0.00 0.00 76 1015.7
20260902125804 27 229 0.0 0.0 0.00 0.00 0.00 77 1015.7
20260902125306 26 239 0.0 1.6 0.00 0.00 0.00 77 1015.7
20260902124304 26 248 0.0 1.6 0.00 0.00 0.00 78 1015.7
20260902123804 26 255 0.0 1.6 0.00 0.00 0.00 79 1015.6
20260902123303 26 272 0.0 4.8 0.00 0.00 0.00 79 1015.6
20260902122803 26 235 0.0 0.0 0.00 0.00 0.00 80 1015.6
20260902121804 26 315 0.0 0.0 0.00 0.00 0.00 81 1015.6
20260902121303 26 227 0.0 0.0 0.00 0.00 0.00 81 1015.5
20260902115804 25 227 0.0 0.0 0.00 0.00 0.00 82 1015.2
20260902115307 25 225 0.0 0.0 0.00 0.00 0.00 83 1015.2
20260902114804 25 225 0.0 0.0 0.00 0.00 0.00 83 1015.1
20260902114303 25 221 0.0 0.0 0.00 0.00 0.00 83 1015.1
20260902113804 25 221 0.0 0.0 0.00 0.00 0.00 83 1015.1
20260902113303 25 221 0.0 0.0 0.00 0.00 0.00 83 1015.1
20260902112803 25 221 0.0 0.0 0.00 0.00 0.00 83 1015.0
20260902112306 25 221 0.0 0.0 0.00 0.00 0.00 83 1015.1
20260902111804 25 221 0.0 0.0 0.00 0.00 0.00 83 1015.1
20260902111304 25 221 0.0 0.0 0.00 0.00 0.00 83 1015.0
20260902110803 25 221 0.0 0.0 0.00 0.00 0.00 83 1015.0
20260902110304 25 221 0.0 0.0 0.00 0.00 0.00 83 1015.0
20260902105803 25 222 0.0 0.0 0.00 0.00 0.00 83 1015.0
20260902105306 25 222 0.0 0.0 0.00 0.00 0.00 82 1014.9
20260902104804 25 222 0.0 0.0 0.00 0.00 0.00 82 1014.9
20260902104304 25 222 0.0 0.0 0.00 0.00 0.00 82 1014.9
20260902103805 25 222 0.0 0.0 0.00 0.00 0.00 82 1014.9
20260902103303 25 223 0.0 0.0 0.00 0.00 0.00 82 1014.8
20260902102804 25 224 0.0 0.0 0.00 0.00 0.00 82 1014.8
20260902101303 25 224 0.0 0.0 0.00 0.00 0.00 82 1014.9
20260902100804 25 224 0.0 0.0 0.00 0.00 0.00 82 1014.9
20260902100303 25 224 0.0 0.0 0.00 0.00 0.00 82 1014.9
20260902095803 25 224 0.0 0.0 0.00 0.00 0.00 82 1014.9
20260902095306 25 224 0.0 0.0 0.00 0.00 0.00 82 1014.8
20260902094804 25 224 0.0 0.0 0.00 0.00 0.00 82 1014.9
20260902094303 25 224 0.0 0.0 0.00 0.00 0.00 82 1014.9
20260902093804 25 225 0.0 0.0 0.00 0.00 0.00 82 1014.9
20260902093303 25 225 0.0 0.0 0.00 0.00 0.00 82 1014.9
20260902092804 25 225 0.0 0.0 0.00 0.00 0.00 82 1014.9
20260902092305 25 225 0.0 0.0 0.00 0.00 0.00 82 1014.7
20260902091804 25 225 0.0 0.0 0.00 0.00 0.00 82 1014.7
20260902091303 25 225 0.0 0.0 0.00 0.00 0.00 82 1014.7
20260902090804 25 225 0.0 0.0 0.00 0.00 0.00 82 1014.8
20260902090304 25 225 0.0 0.0 0.00 0.00 0.00 82 1014.7
20260902085804 25 225 0.0 0.0 0.00 0.00 0.00 82 1014.7
20260902085306 25 225 0.0 0.0 0.00 0.00 0.00 82 1014.6
20260902084804 25 225 0.0 0.0 0.00 0.00 0.00 82 1014.4
20260902084303 25 225 0.0 0.0 0.00 0.00 0.00 82 1014.4
20260902083804 25 225 0.0 0.0 0.00 0.00 0.00 82 1014.3
20260902083304 25 225 0.0 0.0 0.00 0.00 0.00 82 1014.4
20260902082804 25 225 0.0 0.0 0.00 0.00 0.00 82 1014.3
20260902082309 25 225 0.0 0.0 0.00 0.00 0.00 82 1014.4
20260902081803 26 225 0.0 0.0 0.00 0.00 0.00 82 1014.3
20260902081303 26 225 0.0 0.0 0.00 0.00 0.00 82 1014.2
20260902080804 26 225 0.0 0.0 0.00 0.00 0.00 82 1014.3
20260902075804 26 225 0.0 0.0 0.00 0.00 0.00 81 1014.1
20260902075306 26 225 0.0 0.0 0.00 0.00 0.00 81 1014.2
20260902074803 26 225 0.0 0.0 0.00 0.00 0.00 81 1014.1
20260902073805 26 225 0.0 0.0 0.00 0.00 0.00 80 1014.2
20260902073304 26 225 0.0 0.0 0.00 0.00 0.00 80 1014.3
20260902072804 26 225 0.0 0.0 0.00 0.00 0.00 80 1014.2
20260902072309 26 225 0.0 0.0 0.00 0.00 0.00 80 1014.2
20260902071303 26 225 0.0 0.0 0.00 0.00 0.00 79 1014.2
20260902070804 26 225 0.0 0.0 0.00 0.00 0.00 79 1014.2
20260902070304 26 225 0.0 0.0 0.00 0.00 0.00 79 1014.2
20260902065804 26 225 0.0 0.0 0.00 0.00 0.00 79 1014.1
20260902065306 26 225 0.0 0.0 0.00 0.00 0.00 78 1014.2
20260902064804 26 225 0.0 0.0 0.00 0.00 0.00 78 1014.3
20260902063804 26 225 0.0 0.0 0.00 0.00 0.00 78 1014.1
20260902063304 26 225 0.0 0.0 0.00 0.00 0.00 77 1014.1
20260902062803 27 225 0.0 0.0 0.00 0.00 0.00 77 1014.2
20260902062306 27 225 0.0 0.0 0.00 0.00 0.00 77 1014.2
20260902061804 27 225 0.0 0.0 0.00 0.00 0.00 77 1014.2
20260902060804 27 225 0.0 0.0 0.00 0.00 0.00 77 1014.3
20260902060304 27 225 0.0 0.0 0.00 0.00 0.00 77 1014.3
20260902055804 27 225 0.0 0.0 0.00 0.00 0.00 76 1014.3
20260902055306 27 225 0.0 0.0 0.00 0.00 0.00 76 1014.3
20260902054804 27 225 0.0 0.0 0.00 0.00 0.00 76 1014.3
20260902053803 27 225 0.0 0.0 0.00 0.00 0.00 76 1014.3
20260902053304 27 225 0.0 0.0 0.00 0.00 0.00 75 1014.2
20260902052803 27 225 0.0 0.0 0.00 0.00 0.00 75 1014.2
20260902052306 27 225 0.0 0.0 0.00 0.00 0.00 75 1014.2
20260902051804 27 225 0.0 0.0 0.00 0.00 0.00 75 1014.1
20260902051304 27 225 0.0 0.0 0.00 0.00 0.00 74 1014.1
20260902050304 27 225 0.0 0.0 0.00 0.00 0.00 74 1014.1
20260902045804 27 225 0.0 0.0 0.00 0.00 0.00 74 1014.2
20260902044804 27 225 0.0 0.0 0.00 0.00 0.00 73 1014.2
20260902043803 27 225 0.0 0.0 0.00 0.00 0.00 73 1014.1
20260902043304 27 225 0.0 0.0 0.00 0.00 0.00 73 1014.2
20260902042803 27 225 0.0 0.0 0.00 0.00 0.00 73 1014.2
20260902042308 27 225 0.0 0.0 0.00 0.00 0.00 73 1014.3
20260902041303 28 225 0.0 0.0 0.00 0.00 0.00 72 1014.4
20260902040803 28 225 0.0 0.0 0.00 0.00 0.00 72 1014.4
20260902040305 28 225 0.0 0.0 0.00 0.00 0.00 72 1014.3
20260902035804 28 225 0.0 0.0 0.00 0.00 0.00 72 1014.3
20260902035305 28 225 0.0 0.0 0.00 0.00 0.00 72 1014.3
20260902034804 28 225 0.0 0.0 0.00 0.00 0.00 72 1014.3
20260902034303 28 225 0.0 0.0 0.00 0.00 0.00 72 1014.2
20260902033804 28 225 0.0 0.0 0.00 0.00 0.00 72 1014.1
20260902033305 28 225 0.0 0.0 0.00 0.00 0.00 72 1014.2
20260902032804 28 225 0.0 0.0 0.00 0.00 0.00 72 1014.2
20260902032306 28 225 0.0 0.0 0.00 0.00 0.00 72 1014.2
20260902031804 28 225 0.0 0.0 0.00 0.00 0.00 72 1014.2
20260902031303 28 225 0.0 0.0 0.00 0.00 0.00 72 1014.2
20260902030803 28 225 0.0 0.0 0.00 0.00 0.00 71 1014.2
20260902030304 28 225 0.0 0.0 0.00 0.00 0.00 71 1014.2
20260902024804 29 225 0.0 0.0 0.00 0.00 0.00 70 1014.2
20260902024304 29 225 0.0 0.0 0.00 0.00 0.00 70 1014.2
20260902023303 29 225 0.0 0.0 0.00 0.00 0.00 70 1014.2
20260902022306 29 225 0.0 0.0 0.00 0.00 0.00 69 1014.2
20260902021804 29 225 0.0 0.0 0.00 0.00 0.00 68 1014.2
20260902021304 30 225 0.0 0.0 0.00 0.00 0.00 68 1014.1
20260902020803 30 225 0.0 0.0 0.00 0.00 0.00 68 1014.1
20260902020304 30 225 0.0 0.0 0.00 0.00 0.00 68 1014.1
20260902015804 30 225 0.0 0.0 0.00 0.00 0.00 67 1013.9
20260902015305 30 225 0.0 0.0 0.00 0.00 0.00 67 1013.8
20260902013803 30 225 0.0 0.0 0.00 0.00 0.00 67 1013.8
20260902013304 30 225 0.0 0.0 0.00 0.00 0.00 66 1013.7
20260902012803 30 239 0.0 0.0 0.00 0.00 0.00 66 1013.8
20260902012308 31 239 0.0 0.0 0.00 0.00 0.00 65 1013.7
20260902011804 31 239 0.0 0.0 0.00 0.00 0.00 65 1013.7